TIANWANG 1B (TW-1B)
1 40927U 15051C   19322.85493821  .00010941  00000-0  15193-3 0  9998
2 40927  97.1194   8.0193 0007585 160.8386 314.3219 15.57158090233825
TIANWANG 1A (TW-1A)
1 40928U 15051D   19323.04684559  .00002165  00000-0  53497-4 0  9990
2 40928  97.1313 350.9089 0009386 231.8762 182.6868 15.41535394232790
LAPAN A2
1 40931U 15052B   19308.14990593  .00000506  00000-0 -18695-4 0  9996
2 40931   5.9899 149.2330 0013523 313.9745  46.0045 14.76617760221769
LQSAT
1 40958U 15057A   19322.32883091  .00000032  00000-0  12488-4 0  9997
2 40958  97.8826  27.2689 0019519 110.2968 250.0340 14.73096724221275
CHUBUSAT 2
1 41338U 16012B   19321.86131009 +.00000300 +00000-0 +16548-4 0  9994
2 41338 031.0032 257.6786 0013828 171.1542 188.9339 15.00209482205788
CHUBUSAT 3
1 41339U 16012C   19323.14373151  .00000289  00000-0  15608-4 0  9996
2 41339  31.0118 247.4241 0013762 192.0966 167.9341 15.00381126205973
OUFTI-1
1 41458U 16025C   19322.80709364  .00002356  00000-0  12240-3 0  9998
2 41458  98.1008  57.4475 0165079 201.7152 157.7021 15.06202829195618
E-STAR-2
1 41459U 16025D   19323.19334031  .00001966  00000-0  10338-3 0  9999
2 41459  98.1013  57.4239 0166997 201.9099 157.4929 15.05818521195643
AAUSAT 4
1 41460U 16025E   19322.83871785  .00001840  00000-0  95003-4 0  9997
2 41460  98.0972  58.6971 0156018 194.3439 165.3294 15.07843776195746
NUSAT 1
1 41557U 16033B   19323.21809651  .00001144  00000-0  45117-4 0  9997
2 41557  97.4135  49.8128 0015258 113.0916 247.1934 15.27538096193523
BEESAT 4
1 41619U 16040W   19322.83605646  .00001250  00000-0  55301-4 0  9993
2 41619  97.3499  22.0802 0010749 196.8603 163.2278 15.23468981177171
PRATHAM
1 41783U 16059A   19321.77422373 +.00000049 +00000-0 +18725-4 0  9995
2 41783 098.0490 017.8474 0032241 265.4426 094.3093 14.63020810167789
ALSAT 1N
1 41789U 16059G   19323.13629989  .00000082  00000-0  24477-4 0  9993
2 41789  98.0516  21.5118 0027084 249.5574 110.2730 14.64276750168107
NAYIF 1
1 42017U 17008BX  19322.64483789  .00001342  00000-0  55171-4 0  9999
2 42017  97.3871  28.0530 0006112   5.9742 354.1568 15.25901645153241
MAX VALIER SAT
1 42778U 17036P   19321.78284029 +.00000826 +00000-0 +38817-4 0  9998
2 42778 097.3362 015.9588 0013588 055.4987 304.7531 15.22251860133371
